Weather History for KNOG - January, 2014

Change the Weather History Date:

Tuesday, January 28, 2014

  Actual Average (KALI) Record (KALI)
Temperature  
Mean Temperature 40 °F -  
Max Temperature 46 °F 67 °F 140 °F (2000)
Min Temperature 34 °F 46 °F 35 °F (2014)
Degree Days  
Heating Degree Days 25    
Moisture  
Dew Point 17 °F    
Average Humidity 43    
Maximum Humidity 57    
Minimum Humidity 30    
Precipitation  
Precipitation 0.00 in - - ()
Sea Level Pressure  
Sea Level Pressure 30.29 in    
Wind  
Wind Speed 16 mph (North)    
Max Wind Speed 21 mph    
Max Gust Speed 26 mph    
Visibility 10 miles    
Events Thunderstorm    
Averages and records for this station are not official NWS values.
T = Trace of Precipitation, MM = Missing Value Source: NWS Daily Summary

Daily Weather History Graph

Daily Weather History Graph

Search for Another Location

Airport or City:

Trip Planner

Search our weather history database for the weather conditions in past years. The results will help you decide how hot, cold, wet, or windy it might be!

Date:

Astronomy

Jan. 28, 2014 Rise Set
Actual Time 7:21 AM CST 6:09 PM CST
Civil Twilight 6:56 AM CST 6:34 PM CST
Nautical Twilight 6:28 AM CST 7:02 PM CST
Astronomical Twilight 6:00 AM CST 7:30 PM CST
Moon 5:00 AM CST (1/28) 4:03 PM CST (1/28)
Length of Visible Light 11h 37m
Length of Day
10h 48m
Waning Crescent, 7% of the Moon is Illuminated
Jan 28
Waning Crescent
Jan 30
New
Feb 6
First Quarter
Feb 14
Full
Feb 22
Last Quarter

Hourly Weather History & Observations

Time (CST) Temp. Windchill Dew Point Humidity Pressure Visibility Wind Dir Wind Speed Gust Speed Precip Events Conditions
12:30 AM 46.0 °F 39.0 °F 16.0 °F 30% 30.16 in 10.0 mi NNE 17.3 mph - N/A   Overcast
12:56 AM 46.0 °F 39.3 °F 16.0 °F 30% 30.10 in 10.0 mi NNE 16.1 mph - N/A   Overcast
1:56 AM 45.0 °F 38.5 °F 16.0 °F 31% 30.11 in 10.0 mi North 13.8 mph - N/A   Overcast
2:44 AM 45.0 °F 37.9 °F 15.1 °F 30% 30.15 in 10.0 mi NNE 16.1 mph - N/A   Overcast
2:56 AM 44.1 °F 36.5 °F 14.0 °F 30% 30.11 in 10.0 mi NNE 17.3 mph - N/A   Overcast
3:56 AM 43.0 °F 35.4 °F 12.9 °F 30% 30.11 in 10.0 mi NNE 16.1 mph - N/A   Overcast
4:56 AM 42.1 °F 34.2 °F 12.9 °F 31% 30.13 in 10.0 mi NNE 16.1 mph - N/A   Overcast
5:56 AM 39.9 °F 31.1 °F 14.0 °F 35% 30.16 in 10.0 mi NNE 17.3 mph - N/A   Overcast
6:56 AM 39.0 °F 29.3 °F 17.1 °F 41% 30.18 in 10.0 mi NNE 19.6 mph - N/A   Overcast
7:56 AM 37.9 °F 28.2 °F 18.0 °F 45% 30.21 in 10.0 mi NNE 18.4 mph - N/A   Overcast
8:56 AM 37.9 °F 28.5 °F 18.0 °F 45% 30.26 in 10.0 mi NNE 17.3 mph 25.3 mph N/A   Overcast
9:56 AM 37.9 °F 29.2 °F 18.0 °F 45% 30.29 in 10.0 mi NNE 15.0 mph - N/A   Overcast
10:56 AM 37.0 °F 26.4 °F 18.0 °F 46% 30.31 in 10.0 mi North 20.7 mph 26.5 mph N/A   Overcast
11:56 AM 37.0 °F 27.0 °F 16.0 °F 42% 30.32 in 10.0 mi NNE 18.4 mph - N/A   Overcast
12:56 PM 35.1 °F 24.5 °F 19.0 °F 52% 30.32 in 10.0 mi NNE 18.4 mph - N/A   Overcast
1:56 PM 36.0 °F 26.3 °F 21.0 °F 55% 30.32 in 10.0 mi North 16.1 mph - N/A   Overcast
2:56 PM 36.0 °F 25.6 °F 21.9 °F 57% 30.30 in 10.0 mi NNE 18.4 mph - N/A   Overcast
3:56 PM 37.0 °F 26.7 °F 19.9 °F 50% 30.30 in 10.0 mi North 19.6 mph 24.2 mph N/A   Overcast
4:56 PM 37.0 °F 27.4 °F 17.1 °F 44% 30.32 in 10.0 mi North 17.3 mph - N/A   Overcast
5:56 PM 36.0 °F 25.6 °F 14.0 °F 41% 30.33 in 10.0 mi North 18.4 mph - N/A   Overcast
6:56 PM 36.0 °F 25.3 °F 12.9 °F 39% 30.35 in 10.0 mi North 19.6 mph - N/A   Overcast
7:56 PM 35.1 °F 25.5 °F 16.0 °F 46% 30.39 in 10.0 mi North 15.0 mph - N/A   Overcast
8:56 PM 34.0 °F 25.5 °F 18.0 °F 52% 30.41 in 10.0 mi North 11.5 mph - N/A   Overcast
9:36 PM 35.1 °F 27.9 °F 17.1 °F 48% 30.47 in 10.0 mi North 9.2 mph - N/A Thunderstorm Thunderstorm
9:56 PM 35.1 °F 26.9 °F 17.1 °F 48% 30.40 in 10.0 mi North 11.5 mph - N/A Thunderstorm Thunderstorm
10:03 PM 35.1 °F 26.9 °F 17.1 °F 48% 30.45 in 10.0 mi North 11.5 mph - N/A   Overcast
10:39 PM 35.1 °F 28.6 °F 17.1 °F 48% 30.48 in 10.0 mi NNW 8.1 mph - N/A Thunderstorm Thunderstorm
10:51 PM 35.6 °F 28.6 °F 17.6 °F 48% 30.47 in 10.0 mi North 9.2 mph - N/A   Overcast
10:56 PM 36.0 °F 29.0 °F 17.1 °F 46% 30.42 in 10.0 mi North 9.2 mph - N/A   Overcast
11:56 PM 36.0 °F 31.1 °F 18.0 °F 48% 30.43 in 10.0 mi NW 5.8 mph - N/A   Mostly Cloudy